Simultaneous Nadir Overpasses (SNOs) Predictions

Prediction of SNOs between GOES-15 and TERRA Satellite Orbit:

Table of predicted SNOs for the next 14.0 days since TLE Epoch: 12/30/2023
Index Date Time (GOES-15) GOES-15 Lat,Lon TERRA Lat,Lon Distance(km) Time Diff (sec)
1 12/30/2023 05:50:00 -0.06, 61.32 -0.22, 61.95 71.57 80
2 12/30/2023 18:10:12 0.05, 61.36 -0.84, 57.04 490.37 80
3 01/01/2024 17:53:22 0.05, 61.39 0.02, 61.10 31.67 80
4 01/03/2024 17:33:51 0.05, 61.42 0.84, 65.18 427.04 80
5 01/04/2024 05:53:54 -0.05, 61.40 0.21, 60.30 124.54 80
6 01/06/2024 05:39:43 -0.05, 61.43 -0.64, 64.37 334.21 80
7 01/06/2024 17:59:56 0.04, 61.45 -0.36, 59.45 226.92 80
8 01/08/2024 17:40:24 0.05, 61.50 0.45, 63.53 230.26 80
9 01/09/2024 06:00:26
